This demonstration page uses our WeatherBlox Daily Observations layout. Learn more.

Left ArrowRight Arrow

Hourly Observations for January 29, 2020

Temp ( °F °C ) Dew Point ( °F °C ) Humidity (%) Winds ( mph kmh ) Pressure ( in mb ) Visibility ( mi km ) Precip ( " mm )
12:53 am 00:53 Mostly Cloudy 37 2.8 34 1.1 89 89 Calm 30.03 1017 10 16 0.00 0.00
1:53 am 01:53 Clear 35 1.7 32 0 89 89 Calm 30.02 1017 10 16 0.00 0.00
2:53 am 02:53 Clear 38 3.3 34 1.1 86 86 Calm 30.03 1017 10 16 0.00 0.00
3:53 am 03:53 Partly Cloudy 37 2.8 34 1.1 89 89 NE 3 6 30.01 1016 10 16 0.00 0.00
4:53 am 04:53 Mostly Cloudy 37 2.8 34 1.1 89 89 Calm 30.01 1016 10 16 0.00 0.00
5:53 am 05:53 Partly Cloudy 37 2.8 34 1.1 89 89 Calm 30.01 1016 10 16 0.00 0.00
6:53 am 06:53 Cloudy 36 2.2 34 1.1 93 93 Calm 30.02 1017 10 16 0.00 0.00
7:53 am 07:53 Cloudy 38 3.3 35 1.7 89 89 Calm 30.04 1017 10 16 0.00 0.00
8:53 am 08:53 Cloudy 40 4.4 36 2.2 86 86 Calm 30.05 1018 10 16 0.00 0.00
9:53 am 09:53 Cloudy 44 6.7 36 2.2 73 73 Calm 30.04 1017 10 16 0.00 0.00
10:53 am 10:53 Mostly Cloudy 47 8.3 36 2.2 66 66 NE 6 9 30.03 1017 10 16 0.00 0.00
11:53 am 11:53 Mostly Cloudy 51 10.6 32 0 48 48 ENE 9 15 30.03 1017 10 16 0.00 0.00
12:53 pm 12:53 Cloudy 51 10.6 32 0 48 48 ENE 7 11 30.00 1016 10 16 0.00 0.00
1:53 pm 13:53 Cloudy 52 11.1 33 0.6 49 49 N 5 7 29.99 1016 10 16 0.00 0.00
2:53 pm 14:53 Cloudy 52 11.1 32 0 47 47 ENE 3 6 29.99 1016 10 16 0.00 0.00
3:53 pm 15:53 Partly Cloudy 52 11.1 33 0.6 49 49 NE 7 11 29.98 1015 10 16 0.00 0.00
4:53 pm 16:53 Mostly Cloudy 51 10.6 32 0 48 48 ENE 7 11 29.98 1015 10 16 0.00 0.00
5:53 pm 17:53 Mostly Sunny 50 10 33 0.6 52 52 NE 6 9 29.97 1015 10 16 0.00 0.00
6:53 pm 18:53 Cloudy 49 9.4 33 0.6 55 55 NE 3 6 30.01 1016 10 16 0.00 0.00
7:53 pm 19:53 Cloudy 48 8.9 34 1.1 58 58 Calm 30.04 1017 10 16 0.00 0.00
8:53 pm 20:53 Cloudy 47 8.3 36 2.2 66 66 Calm 30.03 1017 10 16 0.00 0.00
9:53 pm 21:53 Mostly Cloudy 45 7.2 36 2.2 71 71 Calm 30.04 1017 10 16 0.00 0.00
10:53 pm 22:53 Clear 40 4.4 34 1.1 79 79 NNE 3 6 30.04 1017 10 16 0.00 0.00
11:53 pm 23:53 Clear 41 5 35 1.7 79 79 Calm 30.05 1018 10 16 0.00 0.00

Powered by AerisWeather